Milwaukee Timmerman, WI

2:24 AM CDT on October 20, 2017 (GMT -0500)
Timmerman

Weather History for KMWC - April, 2014

Change the Weather History Date:

Tuesday, April 29, 2014

  Actual Average Record
Temperature  
Mean Temperature 42 °F -  
Max Temperature 48 °F 63 °F 83 °F (1970)
Min Temperature 37 °F 41 °F 26 °F (1958)
Degree Days  
Heating Degree Days 22    
Moisture  
Dew Point 39 °F    
Average Humidity 91    
Maximum Humidity 100    
Minimum Humidity 87    
Precipitation  
Precipitation 0.21 in - - ()
Sea Level Pressure  
Sea Level Pressure 29.59 in    
Wind  
Wind Speed 10 mph (ENE)    
Max Wind Speed 18 mph    
Max Gust Speed 25 mph    
Visibility 7 miles    
Events Rain    
Averages and records for this station are not official NWS values.
T = Trace of Precipitation, MM = Missing Value Source: NWS Daily Summary

Daily Weather History Graph

Daily Weather History Graph

Search for Another Location

Airport or City:

Trip Planner

Search our weather history database for the weather conditions in past years. The results will help you decide how hot, cold, wet, or windy it might be!

Date:

Astronomy

Apr. 29, 2014 Rise Set
Actual Time 5:48 AM CDT 7:51 PM CDT
Civil Twilight 5:17 AM CDT 8:22 PM CDT
Nautical Twilight 4:39 AM CDT 9:00 PM CDT
Astronomical Twilight 3:58 AM CDT 9:41 PM CDT
Moon 6:06 AM CDT (4/29) 8:31 PM CDT (4/29)
Length of Visible Light 15h 04m
Length of Day
14h 02m
New Moon, 0% of the Moon is Illuminated
Apr 29
New Moon
May 6
First Quarter
May 14
Full
May 21
Last Quarter
May 28
New

Hourly Weather History & Observations

Time (CDT) Temp. Windchill Dew Point Humidity Pressure Visibility Wind Dir Wind Speed Gust Speed Precip Events Conditions
12:10 AM 39.2 °F 31.2 °F 35.6 °F 87% 29.64 in 7.0 mi NE 13.8 mph 18.4 mph 0.02 in Rain Rain
12:35 AM 39.2 °F 30.8 °F 35.6 °F 87% 29.63 in 10.0 mi ENE 15.0 mph 24.2 mph 0.03 in Rain Light Rain
12:55 AM 37.4 °F 27.8 °F 35.6 °F 93% 29.60 in 10.0 mi NE 17.3 mph 24.2 mph 0.04 in Rain Light Rain
1:15 AM 39.2 °F 30.5 °F 35.6 °F 87% 29.60 in 10.0 mi NE 16.1 mph 24.2 mph N/A Rain Light Rain
1:35 AM 37.4 °F 32.1 °F 35.6 °F 93% 29.62 in 10.0 mi ENE 6.9 mph 17.3 mph N/A Rain Light Rain
1:55 AM 37.4 °F 30.8 °F 35.6 °F 93% 29.62 in 7.0 mi NE 9.2 mph - 0.02 in Rain Light Rain
2:15 AM 37.4 °F 30.8 °F 35.6 °F 93% 29.61 in 10.0 mi NE 9.2 mph - N/A   Light Drizzle
2:35 AM 37.4 °F 31.4 °F 35.6 °F 93% 29.60 in 10.0 mi NE 8.1 mph - N/A   Light Drizzle
2:55 AM 37.4 °F 30.3 °F 35.6 °F 93% 29.59 in 4.0 mi NE 10.4 mph 17.3 mph 0.02 in Rain Rain
3:15 AM 37.4 °F 30.8 °F 35.6 °F 93% 29.59 in 5.0 mi NE 9.2 mph - 0.02 in Rain Rain
3:35 AM 37.4 °F 31.4 °F 35.6 °F 93% 29.58 in 4.0 mi NE 8.1 mph - 0.06 in Rain Rain
4:15 AM 37.4 °F 30.8 °F 35.6 °F 93% 29.56 in 5.0 mi NE 9.2 mph 16.1 mph 0.03 in Rain Rain
4:35 AM 37.4 °F 29.8 °F 35.6 °F 93% 29.55 in 7.0 mi NE 11.5 mph - 0.06 in Rain Light Rain
4:55 AM 37.4 °F 27.5 °F 35.6 °F 93% 29.50 in 7.0 mi NNE 18.4 mph 25.3 mph 0.07 in Rain Rain
5:15 AM 37.4 °F 30.8 °F 35.6 °F 93% 29.53 in 10.0 mi NE 9.2 mph - N/A   Overcast
5:35 AM 37.4 °F 30.3 °F 35.6 °F 93% 29.55 in 7.0 mi NE 10.4 mph - N/A   Overcast
5:55 AM 37.4 °F 30.8 °F 35.6 °F 93% 29.53 in 7.0 mi NNE 9.2 mph - N/A   Overcast
6:15 AM 37.4 °F 30.8 °F 35.6 °F 93% 29.53 in 7.0 mi NE 9.2 mph - N/A   Overcast
6:35 AM 37.4 °F 32.1 °F 35.6 °F 93% 29.54 in 5.0 mi NE 6.9 mph - N/A   Overcast
6:45 AM 39.2 °F 33.0 °F 37.4 °F 93% 29.53 in 3.0 mi NE 9.2 mph - N/A   Overcast
7:45 AM 39.2 °F 35.9 °F 37.4 °F 93% 29.55 in 2.0 mi ENE 4.6 mph - N/A   Overcast
8:45 AM 39.2 °F 32.5 °F 37.4 °F 93% 29.54 in 2.0 mi NE 10.4 mph - N/A   Overcast
9:45 AM 39.2 °F 33.6 °F 39.2 °F 100% 29.55 in 2.0 mi NNE 8.1 mph - N/A   Overcast
10:45 AM 42.8 °F 38.0 °F 39.2 °F 87% 29.54 in 2.5 mi NE 8.1 mph - N/A   Overcast
11:45 AM 42.8 °F 40.1 °F 39.2 °F 87% 29.58 in 4.0 mi ESE 4.6 mph - N/A   Overcast
12:45 PM 42.8 °F 36.6 °F 41.0 °F 93% 29.53 in 10.5 mi NE 11.5 mph - N/A   Overcast
1:45 PM 42.8 °F 40.1 °F 39.2 °F 87% 29.54 in 4.0 mi East 4.6 mph - N/A Rain Rain
2:45 PM 42.8 °F 40.1 °F 39.2 °F 87% 29.54 in 10.0 mi NE 4.6 mph - N/A Rain Light Rain
3:45 PM 42.8 °F 39.3 °F 39.2 °F 87% 29.56 in 5.0 mi East 5.8 mph - N/A Rain Light Rain
4:45 PM 42.8 °F 40.1 °F 41.0 °F 93% 29.59 in 2.5 mi SW 4.6 mph - N/A   Light Drizzle
5:45 PM 46.4 °F 45.2 °F 44.6 °F 93% 29.61 in 5.0 mi ESE 3.5 mph - N/A   Overcast
6:45 PM 48.2 °F - 44.6 °F 87% 29.61 in 7.0 mi Calm Calm - N/A   Mostly Cloudy
7:45 PM 48.2 °F - 46.4 °F 93% 29.63 in 7.0 mi Calm Calm - N/A   Overcast
8:45 PM 48.2 °F - 46.4 °F 93% 29.63 in 7.0 mi SSE 4.6 mph - N/A   Overcast
9:15 PM 46.4 °F 45.2 °F 44.6 °F 93% 29.64 in 7.0 mi ESE 3.5 mph - N/A   Mostly Cloudy
9:35 PM 46.4 °F 42.4 °F 42.8 °F 87% 29.65 in 10.0 mi ESE 8.1 mph - N/A   Mostly Cloudy
9:55 PM 46.4 °F 42.4 °F 42.8 °F 87% 29.65 in 10.0 mi SE 8.1 mph - N/A   Mostly Cloudy
10:15 PM 46.4 °F 42.9 °F 42.8 °F 87% 29.66 in 10.0 mi SSE 6.9 mph - N/A   Mostly Cloudy
10:35 PM 46.4 °F 44.3 °F 42.8 °F 87% 29.65 in 10.0 mi SSE 4.6 mph - N/A   Scattered Clouds
10:55 PM 44.6 °F 43.1 °F 41.0 °F 87% 29.65 in 10.0 mi SSE 3.5 mph - N/A   Scattered Clouds
11:15 PM 44.6 °F 42.2 °F 41.0 °F 87% 29.65 in 10.0 mi South 4.6 mph - N/A   Clear
11:35 PM 44.6 °F 43.1 °F 41.0 °F 87% 29.65 in 10.0 mi South 3.5 mph - N/A   Scattered Clouds
11:55 PM 44.6 °F 43.1 °F 41.0 °F 87% 29.65 in 10.0 mi South 3.5 mph - N/A   Mostly Cloudy